Flag for Belgium Weather past 2 weeks in Leuven, Belgium

55 °F

Passing clouds.

Feels Like: 52 °F
Forecast: 49 / 58 °F
Wind: 13 mph from Southwest

Location: Brussels National Airport

Current Time: Oct 7, 2015 at 11:19:16 PM

Latest Report: Oct 7, 2015 at 10:50 PM

Visibility: N/A

Pressure: 30.01 "Hg

Humidity: 82%

Dew point: 50 °F

Location of LeuvenLocation

Historic Weather in Leuven — Graph


Leuven temperature yesterday

Maximum temperature yesterday: 66 °F (at 5:20 PM)
Minimum temperature yesterday: 57 °F (at 12:20 AM)
Average temperature yesterday: 60 °F

Past Weeks' High & Low Weather Summary

High68 °F (Oct 3, 4:20 PM)100% (Sep 23, 4:50 AM)30.63 "Hg (Sep 23, 4:50 AM)
Low37 °F (Oct 2, 5:20 AM)45% (Sep 30, 2:20 PM)29.53 "Hg (Oct 6, 4:20 PM)
Average53 °F81%30.15 "Hg
* Reported Sep 22 9:20 PM — Oct 7 9:50 PM, Leuven, Weather by CustomWeather, © 2015

Note: Actual official high and low records may vary slightly from our data, if they occured in-between our weather recording intervals... More about our weather records


Leuven weather history for previous 24 hours

Time TempWeatherWind HumidityBarometerVisibility
9:50 PM
Wed, Oct 7
55 °FPassing clouds.15 mph82%29.98 "HgN/A
9:20 PM54 °FPartly cloudy.14 mph94%29.98 "Hg5 mi
8:50 PM55 °FPartly cloudy.13 mph88%29.95 "Hg4 mi
8:20 PM55 °FPartly cloudy.12 mph94%29.95 "Hg4 mi
7:50 PM55 °FDrizzle. Broken clouds.13 mph94%29.95 "Hg6 mi
7:20 PM55 °FDrizzle. Broken clouds.14 mph94%29.92 "Hg4 mi
6:50 PM55 °FDrizzle. Partly sunny.14 mph94%29.92 "Hg3 mi
6:20 PM55 °FDrizzle. Broken clouds.10 mph94%29.92 "HgN/A
5:50 PM55 °FDrizzle. Broken clouds.14 mph94%29.89 "HgN/A
5:20 PM55 °FDrizzle. Broken clouds.14 mph94%29.89 "Hg5 mi
4:50 PM57 °FBroken clouds.14 mph88%29.89 "HgN/A
4:20 PM57 °FDrizzle. Broken clouds.13 mph94%29.89 "Hg2 mi
3:50 PM57 °FDrizzle. Partly sunny.15 mph94%29.86 "Hg3 mi
3:20 PM57 °FBroken clouds.14 mph88%29.86 "Hg4 mi
2:50 PM57 °FDrizzle. Broken clouds.13 mph88%29.86 "Hg1 mi
2:20 PM57 °FDrizzle. Broken clouds.14 mph94%29.86 "Hg1 mi
1:50 PM59 °FDrizzle. Broken clouds.14 mph82%29.83 "Hg2 mi
1:20 PM57 °FBroken clouds.13 mph94%29.83 "HgN/A
12:50 PM57 °FBroken clouds.10 mph94%29.83 "Hg4 mi
12:20 PM57 °FDrizzle. Broken clouds.9 mph94%29.83 "Hg2 mi
11:50 AM57 °FDrizzle. Partly sunny.12 mph94%29.80 "Hg2 mi
11:20 AM59 °FPartly sunny.9 mph82%29.80 "HgN/A
10:50 AM57 °FPartly sunny.10 mph88%29.80 "HgN/A
10:20 AM57 °FPartly sunny.10 mph88%29.77 "HgN/A
9:50 AM57 °FPartly sunny.12 mph88%29.77 "HgN/A
9:20 AM57 °FPartly sunny.12 mph88%29.77 "HgN/A
8:50 AM57 °FPassing clouds.13 mph88%29.74 "HgN/A
8:20 AM57 °FPartly cloudy.12 mph88%29.74 "HgN/A
7:50 AM57 °FPartly cloudy.10 mph88%29.71 "HgN/A
7:20 AM57 °FPartly cloudy.10 mph88%29.71 "Hg2 mi
6:50 AM57 °FPartly cloudy.9 mph88%29.71 "Hg2 mi
6:20 AM57 °FPartly cloudy.8 mph88%29.68 "HgN/A
5:50 AM57 °FPartly cloudy.9 mph88%29.68 "HgN/A
5:20 AM59 °FPartly cloudy.10 mph82%29.68 "HgN/A
4:50 AM57 °FPassing clouds.12 mph88%29.68 "HgN/A
4:20 AM59 °FPassing clouds.9 mph82%29.65 "HgN/A
2:50 AM59 °FPassing clouds.9 mph88%29.65 "HgN/A
2:20 AM59 °FPassing clouds.8 mph88%29.65 "HgN/A
1:50 AM59 °FPassing clouds.10 mph88%29.65 "HgN/A
1:20 AM59 °FPassing clouds.8 mph88%29.65 "HgN/A
12:50 AM57 °FPassing clouds.7 mph94%29.62 "HgN/A
12:20 AM59 °FPassing clouds.6 mph88%29.62 "HgN/A
11:50 PM
Tue, Oct 6
59 °FPassing clouds.7 mph88%29.62 "HgN/A
11:20 PM61 °FPassing clouds.7 mph88%29.62 "HgN/A
Weather by CustomWeather, © 2015

See weather overviewHow to use our weather pages